Location: Newark
(40.3500°N, 15.2333°E)
Time: 21:21:31
(UTC+00:00)

NOAA 19 - Pass Details

Date: 28 February 2020
Orbit: 842 x 860 km, 99.2° (Epoch: 09 April)

Event Time Altitude Azimuth Distance (km) Brightness Sun altitude
Rises 17:19:05 0° 208° (SSW) 3,383 8.8 -6.6°
Reaches altitude 10° 17:22:18 10° 228° (SW) 2,454 8.5 -7.2°
Maximum altitude 17:25:44 17° 268° (W) 2,008 8.6 -7.8°
Drops below altitude 10° 17:29:12 10° 308° (NW) 2,467 8.4 -8.5°
Sets 17:32:28 0° 328° (NNW) 3,410 8.8 -9.1°
